Regional Weather Roundup
Issued by NWS Newport/Morehead, NC

Current Version | Previous Version | Graphics & Text | Print | Product List | Glossary Off
Versions: 1 2 3 4 5 6 7 8 9 10 11 12 13 14 15 16 17 18 19 20 21 22 23 24 25 26 27 28 29 30 31 32 33 34 35 36 37 38 39 40 41 42 43 44 45 46 47 48 49 50

000
ASUS42 KMHX 250125
RWRMHX
WEATHER ROUNDUP FOR EASTERN NORTH CAROLINA
NATIONAL WEATHER SERVICE NEWPORT/MOREHEAD CITY NC
900 PM EDT FRI MAR 24 2017

NOTE: "FAIR" INDICATES FEW OR NO CLOUDS BELOW 12,000 FEET
WITH NO SIGNIFICANT WEATHER AND/OR OBSTRUCTIONS TO VISIBILITY

NCZ015>017-031-032-045>047-102-103-250200-
NORTH COAST

CITY           SKY/WX    TMP DP  RH WIND       PRES   REMARKS
EDENTON        NOT AVBL
ELIZABETH CITY CLEAR     61  48  62 S12       30.33S
KITTY HAWK     NOT AVBL
MANTEO         CLEAR     56  49  74 SW14      30.36S

$$

NCZ045>047-081-094-103-104-250200-
CENTRAL COAST

CITY           SKY/WX    TMP DP  RH WIND       PRES   REMARKS
FRISCO         CLEAR     59  51  75 SW8       30.39S

$$

NCZ095-097-098-100-101-250200-
SOUTHERN COAST

CITY           SKY/WX    TMP DP  RH WIND       PRES   REMARKS
BEAUFORT       CLEAR     62  52  69 S12       30.40S
CEDAR ISLAND   NOT AVBL
JACKSONVILLE   CLEAR     61  52  72 S7        30.38S
PINEY ISLAND   CLEAR    N/A N/A N/A S7        30.39S
WILMINGTON     CLEAR     57  52  83 S5        30.39F


$$

NCZ011>013-027>030-043-044-078>080-089-090>093-098-250200-
COASTAL PLAIN

CITY           SKY/WX    TMP DP  RH WIND       PRES   REMARKS
AHOSKIE        NOT AVBL
CLINTON        CLEAR     64  49  59 S5        30.37R
ELIZABETHTOWN  CLEAR     63  50  63 S7        30.37S
GOLDSBORO      CLEAR     64  50  60 S6        30.33R
GREENVILLE     CLEAR     63  50  63 S9        30.35S
HAVELOCK       CLEAR     60  51  72 S7        30.39F
KENANSVILLE    CLEAR     61  50  67 S3        30.37R
KINSTON        CLEAR     63  50  63 S12       30.36S
NEW BERN       CLEAR     60  51  72 S9        30.39S
RICHLANDS      CLEAR     60  51  72 S7        30.38S
ROCKY MOUNT    CLEAR     55  48  77 S3        30.33S
WASHINGTON     CLEAR     61  49  63 S6        30.36R
WHITEVILLE     CLEAR     62  49  63 S5        30.37S

$$

AMZ130-135-150-152-154-156-158-170-250-252-270-ANZ085-086-088-633-658-670-250200-
MARINE OBSERVATIONS

STATION/POSITION TIME  TEMP    WIND        PRES    WAVE   SWELL
                       AIR SEA DIR/SP/G            HT/PER HT/PER
                 (UTC) (F)     (DEG/KT/KT) (MB)    (FT/S) (FT/S)
CHESAPEAKE LIGHT NOT AVBL
64 E VA BEACH    0050   54 51  210/ 19/ 21 1026.5    4/ 4   2/10
DUCK             0100   58 47  200/ 12/ 17 1026.8
2 E DUCK         0100      49                N/A     2/10
OREGON INLET     0100   57 54  200/ 14/ 17 1027.9
13E OREGON INLT  NOT AVBL
HATTERAS CG      0100   60 54  210/  9/ 12 1028.5
DIAMOND BUOY     0050   66 74  200/ 19/ 23 1029.1    4/ 9   3/ 9
CAPE LOOKOUT     0100   64     190/ 11/ 14 1029.1
BEAUFORT LAB     0100   62 52  200/ 10/ 12 1028.3
30 SE NEW RVR IN 0108   66     200/ 14/ 17 1029.5
30 SE NEW RVR IN 0113      67                N/A     3/10
27 SE WRIGHTSVLE 0108   64 62  200/  6/ 10 1028.4
5 SE WRIGHTSVLE  0108   60 58  190/  8/ 10 1029.1
225 S CAPE HAT   0050   64 74   80/ 12/ 17 1031.3    5/11   5/11
41 SE CHARLESTON 0050   70 72  150/ 10/ 12 1028.3    4/ 8   3/ 8

$$



USA.gov is the U.S. government's official web portal to all federal, state and local government web resources and services.